{"data":{"norad_id":67292,"intl_designator":"2025-313AW","name":"SITRO-AIS-64","alt_names":[],"object_type":"PAYLOAD","status":"ACTIVE","operator":null,"country":"CIS","launch_date":"2025-12-28","launch_site_code":"VOSTO","launch_vehicle":null,"mission":null,"orbit_class":"UNKNOWN","rcs_meters":null,"size_class":null,"mass_kg":null,"dimensions":null,"purposes":[],"wikipedia_slug":null,"has_3d_model":false,"image_url":null,"decayed_at":null,"tle_current":{"epoch":"2026-09-19T10:58:26.750784Z","epoch_age_seconds":193245,"freshness":"STALE","line1":"1 67292U 25313AW  26262.45725406  .00006259  00000+0  24231-3 0  9997","line2":"2 67292  97.3855 336.4283 0009190  32.2550 327.9249 15.26499981 40352","mean_motion":15.26499981,"eccentricity":0.000919,"inclination_deg":97.3855,"raan_deg":336.4283,"arg_perigee_deg":32.255,"mean_anomaly_deg":327.9249,"bstar":0.00024231,"rev_number":4035,"period_min":94.333443689705,"perigee_km":479.97656424985,"apogee_km":492.59337182711,"semimajor_km":6864.4219680385,"source":"CELESTRAK","updated_at":"2026-09-21T09:00:16.550482Z"}}}